H1 CPF 2 NER 2025 12 17 9 351 01 glonass127 H2 1106403 9127 37869 2025 12 17 0 0 0 2025 12 20 23 45 0 900 1 1 0 0 0 1 H9 10 0 61026 0.00000 0 -21930307.851 -3230616.326 -12517365.462 10 0 61026 900.00000 0 -20210842.228 -3350249.779 -15104123.684 10 0 61026 1800.00000 0 -18211106.533 -3663145.296 -17395581.102 10 0 61026 2700.00000 0 -15988787.023 -4197549.928 -19346827.050 10 0 61026 3600.00000 0 -13608004.493 -4970326.033 -20919627.448 10 0 61026 4500.00000 0 -11136761.820 -5986017.244 -22083192.291 10 0 61026 5400.00000 0 -8644240.824 -7236451.485 -22814791.078 10 0 61026 6300.00000 0 -6198063.920 -8700899.314 -23100203.141 10 0 61026 7200.00000 0 -3861637.343 -10346781.474 -22933993.654 10 0 61026 8100.00000 0 -1691688.827 -12130895.555 -22319610.210 10 0 61026 9000.00000 0 263896.283 -14001109.032 -21269298.848 10 0 61026 9900.00000 0 1967849.895 -15898445.828 -19803842.500 10 0 61026 10800.00000 0 3394833.758 -17759476.745 -17952128.660 10 0 61026 11700.00000 0 4532236.875 -19518911.366 -15750556.699 10 0 61026 12600.00000 0 5380427.305 -21112280.830 -13242298.563 10 0 61026 13500.00000 0 5952451.508 -22478597.623 -10476429.475 10 0 61026 14400.00000 0 6273198.017 -23562880.206 -7506947.675 10 0 61026 15300.00000 0 6378064.771 -24318436.770 -4391704.242 10 0 61026 16200.00000 0 6311190.196 -24708813.319 -1191265.380 10 0 61026 17100.00000 0 6123325.871 -24709326.227 2032269.606 10 0 61026 18000.00000 0 5869442.992 -24308117.344 5216471.081 10 0 61026 18900.00000 0 5606174.998 -23506690.046 8299779.265 10 0 61026 19800.00000 0 5389204.681 -22319906.650 11222679.356 10 0 61026 20700.00000 0 5270705.253 -20775449.548 13928830.016 10 0 61026 21600.00000 0 5296941.766 -18912770.333 16366125.271 10 0 61026 22500.00000 0 5506131.897 -16781571.896 18487671.671 10 0 61026 23400.00000 0 5926653.798 -14439886.695 20252664.369 10 0 61026 24300.00000 0 6575674.200 -11951830.231 21627147.890 10 0 61026 25200.00000 0 7458252.727 -9385121.127 22584649.424 10 0 61026 26100.00000 0 8566959.109 -6808468.076 23106674.541 10 0 61026 27000.00000 0 9882019.492 -4288928.860 23183057.355 10 0 61026 27900.00000 0 11371986.935 -1889347.524 22812159.228 10 0 61026 28800.00000 0 12994910.284 334027.198 22000912.189 10 0 61026 29700.00000 0 14699955.642 2333646.234 20764705.425 10 0 61026 30600.00000 0 16429416.288 4072401.921 19127115.358 10 0 61026 31500.00000 0 18121030.789 5524935.860 17119482.244 10 0 61026 32400.00000 0 19710515.907 6678458.543 14780338.657 10 0 61026 33300.00000 0 21134211.207 7533045.814 12154697.867 10 0 61026 34200.00000 0 22331726.548 8101398.201 9293212.881 10 0 61026 35100.00000 0 23248482.203 8408071.256 6251219.708 10 0 61026 36000.00000 0 23838034.541 8488207.094 3087681.206 10 0 61026 36900.00000 0 24064087.797 8385818.626 -135949.441 10 0 61026 37800.00000 0 23902104.687 8151697.462 -3356924.117 10 0 61026 38700.00000 0 23340444.630 7841033.292 -6512430.600 10 0 61026 39600.00000 0 22380977.951 7510845.833 -9540833.670 10 0 61026 40500.00000 0 21039146.561 7217339.395 -12382900.557 10 0 61026 41400.00000 0 19343465.369 7013294.375 -14982984.517 10 0 61026 42300.00000 0 17334483.034 6945609.113 -17290140.763 10 0 61026 43200.00000 0 15063244.334 7053099.559 -19259150.314 10 0 61026 44100.00000 0 12589318.361 7364653.256 -20851429.248 10 0 61026 45000.00000 0 9978475.934 7897818.897 -22035803.388 10 0 61026 45900.00000 0 7300115.000 8657893.585 -22789131.662 10 0 61026 46800.00000 0 4624543.731 9637548.133 -23096764.880 10 0 61026 47700.00000 0 2020237.127 10817007.051 -22952830.546 10 0 61026 48600.00000 0 -448816.303 12164775.551 -22360338.344 10 0 61026 49500.00000 0 -2725565.521 13638882.010 -21331105.031 10 0 61026 50400.00000 0 -4762042.575 15188581.947 -19885501.493 10 0 61026 51300.00000 0 -6521113.604 16756449.757 -18052028.601 10 0 61026 52200.00000 0 -7977763.456 18280767.947 -15866732.105 10 0 61026 53100.00000 0 -9119862.622 19698111.277 -13372470.174 10 0 61026 54000.00000 0 -9948387.699 20946015.375 -10618050.040 10 0 61026 54900.00000 0 -10477090.066 21965616.499 -7657252.694 10 0 61026 55800.00000 0 -10731630.936 22704151.048 -4547766.575 10 0 61026 56700.00000 0 -10748223.323 23117210.215 -1350052.583 10 0 61026 57600.00000 0 -10571841.845 23170656.228 1873836.385 10 0 61026 58500.00000 0 -10254078.838 22842121.564 5061457.778 10 0 61026 59400.00000 0 -9850739.231 22122030.568 8151180.326 10 0 61026 60300.00000 0 -9419276.620 21014103.132 11083360.950 10 0 61026 61200.00000 0 -9016178.464 19535321.617 13801476.042 10 0 61026 62100.00000 0 -8694409.578 17715364.429 16253187.149 10 0 61026 63000.00000 0 -8501019.656 15595530.934 18391322.679 10 0 61026 63900.00000 0 -8475013.213 13227202.921 20174759.262 10 0 61026 64800.00000 0 -8645569.050 10669906.144 21569188.471 10 0 61026 65700.00000 0 -9030681.786 7989050.647 22547756.578 10 0 61026 66600.00000 0 -9636280.877 5253441.261 23091567.173 10 0 61026 67500.00000 0 -10455863.315 2532658.390 23190038.575 10 0 61026 68400.00000 0 -11470655.735 -105585.929 22841110.011 10 0 61026 69300.00000 0 -12650300.509 -2598010.516 22051292.682 10 0 61026 70200.00000 0 -13954039.488 -4888143.101 20835563.921 10 0 61026 71100.00000 0 -15332348.952 -6928417.808 19217104.905 10 0 61026 72000.00000 0 -16728960.870 -8681906.614 17226884.710 10 0 61026 72900.00000 0 -18083189.333 -10123613.490 14903095.960 10 0 61026 73800.00000 0 -19332467.869 -11241276.977 12290449.954 10 0 61026 74700.00000 0 -20414993.574 -12035646.527 9439341.866 10 0 61026 75600.00000 0 -21272368.401 -12520219.240 6404899.476 10 0 61026 76500.00000 0 -21852126.743 -12720445.881 3245931.601 10 0 61026 77400.00000 0 -22110041.814 -12672437.454 23795.160 10 0 61026 78300.00000 0 -22012111.460 -12421225.006 -3198797.777 10 0 61026 79200.00000 0 -21536136.560 -12018645.012 -6359009.578 10 0 61026 80100.00000 0 -20672821.741 -11520939.430 -9395118.218 10 0 61026 81000.00000 0 -19426348.133 -10986172.665 -12247744.117 10 0 61026 81900.00000 0 -17814390.344 -10471576.447 -14861036.393 10 0 61026 82800.00000 0 -15867573.882 -10030937.458 -17183792.752 10 0 61026 83700.00000 0 -13628393.665 -9712141.320 -19170488.458 10 0 61026 84600.00000 0 -11149637.852 -9554980.061 -20782191.766 10 0 61026 85500.00000 0 -8492383.055 -9589318.907 -21987345.725 10 0 61027 0.00000 0 -5723646.001 -9833702.508 -22762399.344 10 0 61027 900.00000 0 -2913789.949 -10294461.582 -23092275.052 10 0 61027 1800.00000 0 -133799.991 -10965358.402 -22970661.905 10 0 61027 2700.00000 0 2547461.889 -11827786.644 -22400130.373 10 0 61027 3600.00000 0 5065902.006 -12851516.109 -21392066.103 10 0 61027 4500.00000 0 7364630.369 -13995949.472 -19966425.667 10 0 61027 5400.00000 0 9396084.098 -15211835.948 -18151320.691 10 0 61027 6300.00000 0 11123750.988 -16443367.267 -15982440.414 10 0 61027 7200.00000 0 12523422.918 -17630565.164 -13502326.111 10 0 61027 8100.00000 0 13583929.484 -18711857.649 -10759513.751 10 0 61027 9000.00000 0 14307324.653 -19626733.833 -7807563.701 10 0 61027 9900.00000 0 14708522.638 -20318364.487 -4703998.342 10 0 61027 10800.00000 0 14814402.537 -20736077.810 -1509169.889 10 0 61027 11700.00000 0 14662423.366 -20837586.793 1714918.420 10 0 61027 12600.00000 0 14298811.258 -20590875.825 4905814.187 10 0 61027 13500.00000 0 13776397.841 -19975669.190 8001817.434 10 0 61027 14400.00000 0 13152202.468 -18984422.009 10943159.243 10 0 61027 15300.00000 0 12484860.626 -17622794.334 13673135.825 10 0 61027 16200.00000 0 11832006.238 -15909590.494 16139177.888 10 0 61027 17100.00000 0 11247716.460 -13876167.540 18293836.905 10 0 61027 18000.00000 0 10780124.295 -11565338.209 20095671.804 10 0 61027 18900.00000 0 10469296.692 -9029813.675 21510021.612 10 0 61027 19800.00000 0 10345464.654 -6330249.528 22509651.710 10 0 61027 20700.00000 0 10427677.352 -3532973.914 23075263.395 10 0 61027 21600.00000 0 10722935.130 -707488.967 23195858.559 10 0 61027 22500.00000 0 11225837.127 2076154.354 22868953.406 10 0 61027 23400.00000 0 11918758.727 4750002.918 22100637.182 10 0 61027 24300.00000 0 12772552.910 7250763.354 20905474.058 10 0 61027 25200.00000 0 13747748.551 9522176.061 19306248.498 10 0 61027 26100.00000 0 14796198.495 11517104.880 17333556.784 10 0 61027 27000.00000 0 15863111.658 13199256.864 15025249.852 10 0 61027 27900.00000 0 16889387.145 14544460.695 12425735.138 10 0 61027 28800.00000 0 17814155.019 15541449.640 9585147.952 10 0 61027 29700.00000 0 18577418.809 16192114.716 6558405.658 10 0 61027 30600.00000 0 19122689.249 16511215.354 3404160.685 10 0 61027 31500.00000 0 19399497.822 16525557.403 183671.213 10 0 61027 32400.00000 0 19365682.426 16272670.924 -3040389.280 10 0 61027 33300.00000 0 18989345.971 15799041.884 -6205160.318 10 0 61027 34200.00000 0 18250401.736 15157971.503 -9248835.577 10 0 61027 35100.00000 0 17141636.297 14407153.786 -12111891.030 10 0 61027 36000.00000 0 15669241.249 13606074.685 -14738273.832 10 0 61027 36900.00000 0 13852787.697 12813344.813 -17076526.123 10 0 61027 37800.00000 0 11724641.712 12084081.092 -19080819.106 10 0 61027 38700.00000 0 9328843.357 11467451.032 -20711874.682 10 0 61027 39600.00000 0 6719495.475 11004486.426 -21937754.358 10 0 61027 40500.00000 0 3958729.889 10726261.553 -22734498.339 10 0 61027 41400.00000 0 1114337.152 10652514.893 -23086601.160 10 0 61027 42300.00000 0 -1742839.371 10790773.833 -22987314.090 10 0 61027 43200.00000 0 -4541634.361 11136019.615 -22438768.532 10 0 61027 44100.00000 0 -7213300.439 11670906.055 -21451918.756 10 0 61027 45000.00000 0 -9694141.281 12366521.301 -20046306.330 10 0 61027 45900.00000 0 -11927927.268 13183658.365 -18249652.501 10 0 61027 46800.00000 0 -13867992.948 14074538.228 -16097288.439 10 0 61027 47700.00000 0 -15478929.769 14984910.070 -13631436.624 10 0 61027 48600.00000 0 -16737805.401 15856437.427 -10900359.572 10 0 61027 49500.00000 0 -17634861.654 16629267.384 -7957394.629 10 0 61027 50400.00000 0 -18173665.321 17244672.816 -4859895.598 10 0 61027 51300.00000 0 -18370709.740 17647655.439 -1668103.408 10 0 61027 52200.00000 0 -18254487.757 17789399.887 1556031.000 10 0 61027 53100.00000 0 -17864078.919 17629476.245 4750048.016 10 0 61027 54000.00000 0 -17247313.370 17137699.812 7852181.600 10 0 61027 54900.00000 0 -16458591.866 16295571.756 10802539.616 10 0 61027 55800.00000 0 -15556454.798 15097242.374 13544240.652 10 0 61027 56700.00000 0 -14601002.374 13549958.444 16024487.054 10 0 61027 57600.00000 0 -13651273.394 11673977.546 18195555.716 10 0 61027 58500.00000 0 -12762690.804 9501953.849 20015690.017 10 0 61027 59400.00000 0 -11984678.718 7077820.967 21449878.380 10 0 61027 60300.00000 0 -11358548.019 4455217.408 22470506.977 10 0 61027 61200.00000 0 -10915736.482 1695518.090 23057876.175 10 0 61027 62100.00000 0 -10676474.891 -1134449.164 23200572.468 10 0 61027 63000.00000 0 -10648933.569 -3964910.887 22895689.677 10 0 61027 63900.00000 0 -10828884.552 -6725778.778 22148895.332 10 0 61027 64800.00000 0 -11199894.130 -9349298.743 20974340.244 10 0 61027 65700.00000 0 -11734039.269 -11772611.700 19394411.521 10 0 61027 66600.00000 0 -12393120.272 -13940122.503 17439331.557 10 0 61027 67500.00000 0 -13130321.777 -15805580.319 15146608.051 10 0 61027 68400.00000 0 -13892255.406 -17333784.561 12560342.618 10 0 61027 69300.00000 0 -14621301.090 -18501844.880 9730408.372 10 0 61027 70200.00000 0 -15258150.744 -19299941.244 6711509.589 10 0 61027 71100.00000 0 -15744448.421 -19731550.304 3562139.387 10 0 61027 72000.00000 0 -16025415.750 -19813126.062 343454.060 10 0 61027 72900.00000 0 -16052350.735 -19573245.882 -2881914.828 10 0 61027 73800.00000 0 -15784892.176 -19051255.629 -6051087.391 10 0 61027 74700.00000 0 -15192950.858 -18295469.614 -9102176.515 10 0 61027 75600.00000 0 -14258222.110 -17361000.670 -11975517.246 10 0 61027 76500.00000 0 -12975211.815 -16307312.382 -14614858.219 10 0 61027 77400.00000 0 -11351728.625 -15195598.188 -16968489.268 10 0 61027 78300.00000 0 -9408818.241 -14086100.153 -18990280.503 10 0 61027 79200.00000 0 -7180139.865 -13035483.330 -20640610.008 10 0 61027 80100.00000 0 -4710809.406 -12094379.411 -21887159.760 10 0 61027 81000.00000 0 -2055757.397 -11305206.043 -22705562.503 10 0 61027 81900.00000 0 722329.249 -10700356.033 -23079885.759 10 0 61027 82800.00000 0 3555394.277 -10300834.335 -23002943.005 10 0 61027 83700.00000 0 6372626.522 -10115400.809 -22476426.049 10 0 61027 84600.00000 0 9103190.646 -10140254.525 -21510856.714 10 0 61027 85500.00000 0 11678958.444 -10359271.538 -20125360.000 10 0 61028 0.00000 0 14037125.272 -10744783.911 -18347264.955 10 0 61028 900.00000 0 16122603.056 -11258864.625 -16211541.981 10 0 61028 1800.00000 0 17890087.235 -11855060.548 -13760092.144 10 0 61028 2700.00000 0 19305716.762 -12480497.981 -11040901.418 10 0 61028 3600.00000 0 20348256.875 -13078268.637 -8107080.746 10 0 61028 4500.00000 0 21009759.484 -13589993.266 -5015811.727 10 0 61028 5400.00000 0 21295676.957 -13958453.182 -1827220.257 10 0 61028 6300.00000 0 21224428.443 -14130177.977 1396798.800 10 0 61028 7200.00000 0 20826440.755 -14057880.442 4593782.326 10 0 61028 8100.00000 0 20142707.445 -13702637.042 7701901.634 10 0 61028 9000.00000 0 19222929.406 -13035723.766 10661144.466 10 0 61028 9900.00000 0 18123316.636 -12040032.054 13414454.451 10 0 61028 10800.00000 0 16904144.016 -10711007.240 15908807.747 10 0 61028 11700.00000 0 15627163.324 -9057072.027 18096208.343 10 0 61028 12600.00000 0 14352978.373 -7099518.338 19934585.261 10 0 61028 13500.00000 0 13138491.042 -4871872.492 21388577.034 10 0 61028 14400.00000 0 12034522.318 -2418759.612 22430190.892 10 0 61028 15300.00000 0 11083704.940 205687.080 23039326.139 10 0 61028 16200.00000 0 10318733.047 2939808.469 23204153.361 10 0 61028 17100.00000 0 9761039.881 5716714.195 22921343.156 10 0 61028 18000.00000 0 9419957.486 8466798.266 22196140.188 10 0 61028 18900.00000 0 9292393.202 11120375.147 21042280.502 10 0 61028 19800.00000 0 9363037.187 13610330.647 19481752.196 10 0 61028 20700.00000 0 9605093.894 15874680.603 17544401.928 10 0 61028 21600.00000 0 9981509.180 17858933.278 15267392.127 10 0 61028 22500.00000 0 10446644.300 19518158.367 12694516.387 10 0 61028 23400.00000 0 10948329.178 20818676.429 9875383.265 10 0 61028 24300.00000 0 11430210.964 21739297.201 6864481.449 10 0 61028 25200.00000 0 11834300.572 22272053.143 3720142.105 10 0 61028 26100.00000 0 12103610.441 22422394.983 503416.912 10 0 61028 27000.00000 0 12184771.651 22208838.373 -2723107.243 10 0 61028 27900.00000 0 12030518.147 21662073.960 -5896533.796 10 0 61028 28800.00000 0 11601930.336 20823576.278 -8954897.461 10 0 61028 29700.00000 0 10870339.697 19743768.821 -11838394.784 10 0 61028 30600.00000 0 9818809.919 18479822.306 -14490578.072 10 0 61028 31500.00000 0 8443127.936 17093179.705 -16859486.773 10 0 61028 32400.00000 0 6752259.239 15646913.960 -18898691.550 10 0 61028 33300.00000 0 4768245.133 14203032.092 -20568228.046 10 0 61028 34200.00000 0 2525543.953 12819842.008 -21835399.831 10 0 61028 35100.00000 0 69842.648 11549495.638 -22675433.051 10 0 61028 36000.00000 0 -2543611.688 10435814.269 -23071968.811 10 0 61028 36900.00000 0 -5252089.762 9512489.389 -23017383.086 10 0 61028 37800.00000 0 -7987779.217 8801735.674 -22512928.016 10 0 61028 38700.00000 0 -10680402.920 8313452.680 -21568692.502 10 0 61028 39600.00000 0 -13259945.138 8044929.428 -20203384.054 10 0 61028 40500.00000 0 -15659370.152 7981102.253 -18443937.827 10 0 61028 41400.00000 0 -17817218.733 8095352.271 -16324962.350 10 0 61028 42300.00000 0 -19679973.671 8350805.572 -13888034.939 10 0 61028 43200.00000 0 -21204096.115 8702077.861 -11180862.730 10 0 61028 44100.00000 0 -22357649.124 9097386.647 -8256327.824 10 0 61028 45000.00000 0 -23121442.862 9480938.910 -5171437.107 10 0 61028 45900.00000 0 -23489656.605 9795491.260 -1986198.893 10 0 61028 46800.00000 0 -23469915.075 9984973.101 1237550.577 10 0 61028 47700.00000 0 -23082819.520 9997061.609 4437347.188 10 0 61028 48600.00000 0 -22360956.795 9785600.312 7551302.157 10 0 61028 49500.00000 0 -21347430.918 9312760.480 10519285.604 10 0 61028 50400.00000 0 -20093980.796 8550856.001 13284068.632 10 0 61028 51300.00000 0 -18658764.264 7483737.417 15792403.589 10 0 61028 52200.00000 0 -17103901.145 6107708.369 17996023.804 10 0 61028 53100.00000 0 -15492877.263 4431927.537 19852545.973 10 0 61028 54000.00000 0 -13887916.109 2478280.123 21326260.528 10 0 61028 54900.00000 0 -12347425.239 280724.056 22388797.239 10 0 61028 55800.00000 0 -10923621.124 -2115862.858 23019655.496 10 0 61028 56700.00000 0 -9660428.538 -4657288.946 23206590.769 10 0 61028 57600.00000 0 -8591739.433 -7282044.047 22945850.870 10 0 61028 58500.00000 0 -7740101.967 -9923604.904 22242257.682 10 0 61028 59400.00000 0 -7115893.222 -12512958.745 21109132.199 10 0 61028 60300.00000 0 -6717010.030 -14981244.110 19568062.879 10 0 61028 61200.00000 0 -6529091.643 -17262402.616 17648519.655 10 0 61028 62100.00000 0 -6526266.601 -19295734.131 15387318.357 10 0 61028 63000.00000 0 -6672394.749 -21028250.649 12827942.907 10 0 61028 63900.00000 0 -6922754.790 -22416731.314 10019735.339 10 0 61028 64800.00000 0 -7226108.794 -23429392.181 7016966.533 10 0 61028 65700.00000 0 -7527058.665 -24047099.262 3877803.247 10 0 61028 66600.00000 0 -7768596.236 -24264071.613 663189.887 10 0 61028 67500.00000 0 -7894739.432 -24088042.108 -2564334.166 10 0 61028 68400.00000 0 -7853141.967 -23539866.220 -5741858.656 10 0 61028 69300.00000 0 -7597564.094 -22652592.638 -8807343.243 10 0 61028 70200.00000 0 -7090096.776 -21470032.898 -11700849.178 10 0 61028 71100.00000 0 -6303041.466 -20044889.198 -14365735.666 10 0 61028 72000.00000 0 -5220362.035 -18436519.205 -16749794.933 10 0 61028 72900.00000 0 -3838643.507 -16708432.929 -18806301.169 10 0 61028 73800.00000 0 -2167513.673 -14925628.838 -20494950.258 10 0 61028 74700.00000 0 -229506.986 -13151883.686 -21782669.634 10 0 61028 75600.00000 0 1940625.377 -11447112.641 -22644280.628 10 0 61028 76500.00000 0 4297131.200 -9864913.166 -23062999.164 10 0 61028 77400.00000 0 6784947.507 -8450397.895 -23030764.391 10 0 61028 78300.00000 0 9341793.675 -7238408.781 -22548388.922 10 0 61028 79200.00000 0 11900578.231 -6252187.813 -21625528.362 10 0 61028 80100.00000 0 14392016.799 -5502559.423 -20280471.904 10 0 61028 81000.00000 0 16747349.903 -4987657.125 -18539759.692 10 0 61028 81900.00000 0 18901045.533 -4693203.232 -16437636.338 10 0 61028 82800.00000 0 20793372.581 -4593326.534 -14015353.378 10 0 61028 83700.00000 0 22372737.384 -4651879.803 -11320336.504 10 0 61028 84600.00000 0 23597686.467 -4824197.857 -8405235.944 10 0 61028 85500.00000 0 24438493.283 -5059218.559 -5326880.481 10 0 61029 0.00000 0 24878264.984 -5301874.338 -2145157.473 10 0 61029 900.00000 0 24913526.094 -5495651.306 1078159.853 10 0 61029 1800.00000 0 24554257.466 -5585206.427 4280609.931 10 0 61029 2700.00000 0 23823393.153 -5518932.511 7400247.563 10 0 61029 3600.00000 0 22755798.642 -5251363.174 10376828.681 10 0 61029 4500.00000 0 21396775.973 -4745317.930 13152954.960 10 0 61029 5400.00000 0 19800159.861 -3973698.897 15675157.598 10 0 61029 6300.00000 0 18026084.884 -2920865.535 17894901.445 10 0 61029 7200.00000 0 16138516.658 -1583531.450 19769492.616 10 0 61029 8100.00000 0 14202648.474 28853.056 21262874.711 10 0 61029 9000.00000 0 12282269.646 1894248.278 22346300.886 10 0 61029 9900.00000 0 10437212.372 3978696.564 22998871.042 10 0 61029 10800.00000 0 8720980.228 6237491.519 23207925.561 10 0 61029 11700.00000 0 7178654.049 8616798.755 22969289.086 10 0 61029 12600.00000 0 5845159.856 11055663.996 22287359.948 10 0 61029 13500.00000 0 4743969.116 13488328.812 21175042.954 10 0 61029 14400.00000 0 3886284.588 15846761.626 19653525.432 10 0 61029 15300.00000 0 3270745.825 18063302.382 17751898.787 10 0 61029 16200.00000 0 2883667.571 20073313.904 15506630.167 10 0 61029 17100.00000 0 2699802.848 21817731.697 12960891.484 10 0 61029 18000.00000 0 2683600.901 23245406.865 10163755.715 10 0 61029 18900.00000 0 2790909.501 24315144.175 7169273.193 10 0 61029 19800.00000 0 2971051.987 24997348.726 4035443.388 10 0 61029 20700.00000 0 3169193.012 25275209.977 823100.444 10 0 61029 21600.00000 0 3328893.657 25145370.586 -2405266.804 10 0 61029 22500.00000 0 3394747.508 24618048.755 -5586737.420 10 0 61029 23400.00000 0 3314984.618 23716605.848 -8659198.897 10 0 61029 24300.00000 0 3043930.633 22476574.880 -11562579.897 10 0 61029 25200.00000 0 2544213.666 20944188.914 -14240048.960 10 0 61029 26100.00000 0 1788621.721 19174470.468 -16639153.240 10 0 61029 27000.00000 0 761528.220 17228962.505 -18712872.291 10 0 61029 27900.00000 0 -540178.337 15173197.567 -20420563.773 10 0 61029 28800.00000 0 -2106702.911 13074013.355 -21728780.214 10 0 61029 29700.00000 0 -3915509.528 10996829.870 -22611939.058 10 0 61029 30600.00000 0 -5932038.341 9003004.856 -23052831.663 10 0 61029 31500.00000 0 -8110944.395 7147380.706 -23042960.623 10 0 61029 32400.00000 0 -10397805.563 5476127.309 -22582698.899 10 0 61029 33300.00000 0 -12731226.792 4024971.975 -21681268.253 10 0 61029 34200.00000 0 -15045250.688 2817890.408 -20356538.554 10 0 61029 35100.00000 0 -17271971.619 1866312.241 -18634653.499 10 0 61029 36000.00000 0 -19344242.058 1168872.107 -16549491.939 10 0 61029 36900.00000 0 -21198356.496 711713.506 -14141977.459 10 0 61029 37800.00000 0 -22776599.820 469328.930 -11459251.897 10 0 61029 38700.00000 0 -24029553.515 405896.880 -8553731.037 10 0 61029 39600.00000 0 -24918064.028 477055.528 -5482062.903 10 0 61029 40500.00000 0 -25414792.608 632034.796 -2304010.624 10 0 61029 41400.00000 0 -25505284.101 816054.081 918717.137 10 0 61029 42300.00000 0 -25188512.934 972882.559 4123664.624 10 0 61029 43200.00000 0 -24476886.550 1047453.119 7248832.923 10 0 61029 44100.00000 0 -23395709.113 988419.747 10233866.422 10 0 61029 45000.00000 0 -21982130.647 750551.473 13021199.952 10 0 61029 45900.00000 0 -20283627.270 296863.675 15557146.010 10 0 61029 46800.00000 0 -18356076.993 -399601.028 17792903.229 10 0 61029 47700.00000 0 -16261511.408 -1354415.118 19685469.131 10 0 61029 48600.00000 0 -14065635.804 -2570887.084 21198442.165 10 0 61029 49500.00000 0 -11835218.994 -4039696.682 22302700.185 10 0 61029 50400.00000 0 -9635458.690 -5739059.689 22976944.518 10 0 61029 51300.00000 0 -7527428.792 -7635416.124 23208100.978 10 0 61029 52200.00000 0 -5565711.457 -9684615.161 22991571.189 10 0 61029 53100.00000 0 -3796309.405 -11833550.099 22331329.730 10 0 61029 54000.00000 0 -2254922.860 -14022178.796 21239864.693 10 0 61029 54900.00000 0 -965661.203 -16185849.253 19737961.461 10 0 61029 55800.00000 0 59757.585 -18257837.275 17854331.797 10 0 61029 56700.00000 0 822286.004 -20171993.848 15625092.783 10 0 61029 57600.00000 0 1335291.786 -21865394.483 13093102.670 10 0 61029 58500.00000 0 1623777.186 -23280881.460 10307163.459 10 0 61029 59400.00000 0 1723103.400 -24369393.120 7321102.799 10 0 61029 60300.00000 0 1677271.648 -25091981.872 4192750.526 10 0 61029 61200.00000 0 1536831.523 -25421434.393 982828.009 10 0 61029 62100.00000 0 1356503.840 -25343423.216 -2246229.110 10 0 61029 63000.00000 0 1192618.275 -24857138.031 -5431491.973 10 0 61029 63900.00000 0 1100475.076 -23975366.664 -8510778.766 10 0 61029 64800.00000 0 1131744.463 -22724019.191 -11423888.463 10 0 61029 65700.00000 0 1332016.629 -21141112.634 -14113801.872 10 0 61029 66600.00000 0 1738609.515 -19275257.292 -16527823.932 10 0 61029 67500.00000 0 2378730.896 -17183707.770 -18618642.283 10 0 61029 68400.00000 0 3268076.205 -14930060.982 -20345278.829 10 0 61029 69300.00000 0 4409924.662 -12581699.164 -21673913.322 10 0 61029 70200.00000 0 5794774.503 -10207087.153 -22578561.043 10 0 61029 71100.00000 0 7400534.462 -7873039.514 -23041590.038 10 0 61029 72000.00000 0 9193264.257 -5642074.344 -23054067.129 10 0 61029 72900.00000 0 11128432.791 -3569966.372 -22615925.951 10 0 61029 73800.00000 0 13152640.232 -1703602.969 -21735954.302 10 0 61029 74700.00000 0 15205730.079 -79233.046 -20431602.202 10 0 61029 75600.00000 0 17223200.619 1278818.697 -18728615.974 10 0 61029 76500.00000 0 19138812.646 2358920.193 -16660507.386 10 0 61029 77400.00000 0 20887282.278 3162353.761 -14267870.345 10 0 61029 78300.00000 0 22406944.681 3702985.475 -11597560.686 10 0 61029 79200.00000 0 23642276.433 4006400.127 -8701757.193 10 0 61029 80100.00000 0 24546170.961 4108542.327 -5636924.201 10 0 61029 81000.00000 0 25081872.706 4053924.930 -2462697.661 10 0 61029 81900.00000 0 25224490.768 3893483.651 759282.348 10 0 61029 82800.00000 0 24962030.984 3682170.942 3966569.158 10 0 61029 83700.00000 0 24295905.933 3476392.178 7097113.615 10 0 61029 84600.00000 0 23240904.516 3331392.883 10090451.925 10 0 61029 85500.00000 0 21824624.845 3298706.666 12888855.179 99